• en Belgique
  • Liste des pays
  • À 7 jours
  • Température de l'eau
  • Carte satellitaire
  • Carte météo
  • Widgets météo
  • user-avatar
    Se connecter

    Météo par heure à Courtrai

    Ce jour, 19 Février, Lundi

    Heure Température Précipitation Vent Pression Humidité
    00:00 0°C° 0 mm 4 m/s 763 mmHg 76%
    01:00 -1°C° 0 mm 4 m/s 763 mmHg 75%
    02:00 -1°C° 0 mm 4 m/s 763 mmHg 74%
    03:00 -1°C° 0 mm 4 m/s 762 mmHg 74%
    04:00 -1°C° 0 mm 4 m/s 762 mmHg 74%
    05:00 -1°C° 0 mm 4 m/s 762 mmHg 74%
    06:00 0°C° 0 mm 3 m/s 762 mmHg 74%
    07:00 0°C° 0,1 mm 4 m/s 761 mmHg 73%
    08:00 0°C° 0,1 mm 4 m/s 761 mmHg 72%
    09:00 +1°C° 0,1 mm 4 m/s 761 mmHg 72%
    10:00 +3°C° 0 mm 4 m/s 761 mmHg 71%
    11:00 +3°C° 0 mm 4 m/s 760 mmHg 71%
    12:00 +4°C° 0 mm 4 m/s 760 mmHg 71%
    13:00 +4°C° 0,1 mm 4 m/s 760 mmHg 73%
    14:00 +5°C° 0,1 mm 3 m/s 759 mmHg 75%
    15:00 +5°C° 0,1 mm 3 m/s 759 mmHg 78%
    16:00 +4°C° 0,2 mm 3 m/s 759 mmHg 81%
    17:00 +4°C° 0,2 mm 3 m/s 759 mmHg 84%
    18:00 +4°C° 0,2 mm 3 m/s 759 mmHg 88%
    19:00 +4°C° 0,2 mm 3 m/s 759 mmHg 89%
    20:00 +5°C° 0,2 mm 2 m/s 759 mmHg 89%
    21:00 +4°C° 0,2 mm 2 m/s 759 mmHg 90%
    22:00 +4°C° 0,1 mm 2 m/s 759 mmHg 90%
    23:00 +4°C° 0,1 mm 2 m/s 759 mmHg 90%

    Demain, 20 Février, Mardi

    Heure Température Précipitation Vent Pression Humidité
    00:00 +4°C° 0,1 mm 2 m/s 759 mmHg 90%
    01:00 +4°C° 0 mm 2 m/s 759 mmHg 89%
    02:00 +4°C° 0 mm 2 m/s 759 mmHg 89%
    03:00 +3°C° 0 mm 2 m/s 759 mmHg 89%
    04:00 +3°C° 0 mm 2 m/s 759 mmHg 88%
    05:00 +3°C° 0 mm 2 m/s 759 mmHg 87%
    06:00 +3°C° 0 mm 2 m/s 759 mmHg 86%
    07:00 +3°C° 0 mm 2 m/s 760 mmHg 83%
    08:00 +3°C° 0 mm 2 m/s 760 mmHg 80%
    09:00 +4°C° 0 mm 2 m/s 760 mmHg 77%
    10:00 +4°C° 0 mm 2 m/s 760 mmHg 72%
    11:00 +5°C° 0 mm 2 m/s 761 mmHg 67%
    12:00 +6°C° 0 mm 2 m/s 761 mmHg 62%
    13:00 +6°C° 0,1 mm 2 m/s 761 mmHg 62%
    14:00 +6°C° 0,1 mm 2 m/s 761 mmHg 62%
    15:00 +6°C° 0,1 mm 2 m/s 761 mmHg 62%
    16:00 +5°C° 0,1 mm 2 m/s 761 mmHg 65%
    17:00 +4°C° 0,1 mm 3 m/s 761 mmHg 67%
    18:00 +3°C° 0,1 mm 3 m/s 762 mmHg 70%
    19:00 +3°C° 0 mm 3 m/s 762 mmHg 70%
    20:00 +2°C° 0 mm 3 m/s 763 mmHg 71%
    21:00 0°C° 0 mm 4 m/s 764 mmHg 72%
    22:00 0°C° 0 mm 4 m/s 764 mmHg 73%
    23:00 -1°C° 0 mm 4 m/s 765 mmHg 74%

    Après-demain, 21 Février, Mercredi

    Heure Température Précipitation Vent Pression Humidité
    00:00 -1°C° 0 mm 4 m/s 765 mmHg 74%
    01:00 0°C° 0 mm 3 m/s 765 mmHg 76%
    02:00 -1°C° 0 mm 3 m/s 765 mmHg 77%
    03:00 -1°C° 0 mm 3 m/s 765 mmHg 78%
    04:00 -1°C° 0 mm 3 m/s 766 mmHg 79%
    05:00 -1°C° 0 mm 3 m/s 766 mmHg 79%
    06:00 -2°C° 0 mm 3 m/s 766 mmHg 80%
    07:00 -1°C° 0 mm 3 m/s 766 mmHg 76%
    08:00 -1°C° 0 mm 4 m/s 766 mmHg 71%
    09:00 0°C° 0 mm 4 m/s 766 mmHg 67%
    10:00 +1°C° 0 mm 4 m/s 766 mmHg 62%
    11:00 +3°C° 0 mm 4 m/s 766 mmHg 57%
    12:00 +4°C° 0 mm 4 m/s 766 mmHg 52%
    13:00 +4°C° 0 mm 4 m/s 765 mmHg 52%
    14:00 +5°C° 0 mm 4 m/s 765 mmHg 52%
    15:00 +5°C° 0 mm 5 m/s 765 mmHg 52%
    16:00 +3°C° 0 mm 4 m/s 765 mmHg 57%
    17:00 +1°C° 0 mm 4 m/s 765 mmHg 63%
    18:00 0°C° 0 mm 4 m/s 764 mmHg 68%
    19:00 0°C° 0 mm 4 m/s 765 mmHg 69%
    20:00 -1°C° 0 mm 4 m/s 765 mmHg 71%
    21:00 -1°C° 0 mm 4 m/s 765 mmHg 72%
    22:00 -2°C° 0 mm 4 m/s 765 mmHg 73%
    23:00 -2°C° 0 mm 4 m/s 764 mmHg 73%

    22 Février, Jeudi

    Heure Température Précipitation Vent Pression Humidité
    00:00 -2°C° 0 mm 4 m/s 764 mmHg 74%
    01:00 -2°C° 0 mm 4 m/s 764 mmHg 74%
    02:00 -3°C° 0 mm 4 m/s 764 mmHg 74%
    03:00 -3°C° 0 mm 4 m/s 764 mmHg 74%
    04:00 -3°C° 0 mm 4 m/s 763 mmHg 74%
    05:00 -4°C° 0 mm 5 m/s 763 mmHg 73%
    06:00 -4°C° 0 mm 5 m/s 763 mmHg 73%
    07:00 -2°C° 0 mm 5 m/s 764 mmHg 69%
    08:00 -2°C° 0 mm 6 m/s 764 mmHg 65%
    09:00 -2°C° 0 mm 7 m/s 764 mmHg 60%
    10:00 0°C° 0 mm 7 m/s 764 mmHg 56%
    11:00 +2°C° 0 mm 7 m/s 763 mmHg 52%
    12:00 +3°C° 0 mm 7 m/s 763 mmHg 48%
    13:00 +3°C° 0 mm 7 m/s 763 mmHg 46%
    14:00 +3°C° 0 mm 7 m/s 763 mmHg 44%
    15:00 +3°C° 0 mm 7 m/s 762 mmHg 43%
    16:00 +2°C° 0 mm 7 m/s 762 mmHg 46%
    17:00 +1°C° 0 mm 6 m/s 763 mmHg 49%
    18:00 -2°C° 0 mm 6 m/s 763 mmHg 52%
    19:00 -2°C° 0 mm 6 m/s 763 mmHg 55%
    20:00 -2°C° 0 mm 6 m/s 763 mmHg 58%
    21:00 -3°C° 0 mm 6 m/s 764 mmHg 60%
    22:00 -3°C° 0 mm 6 m/s 763 mmHg 62%
    23:00 -3°C° 0 mm 6 m/s 763 mmHg 64%

    23 Février, Vendredi

    Heure Température Précipitation Vent Pression Humidité
    00:00 -4°C° 0 mm 6 m/s 763 mmHg 66%
    01:00 -4°C° 0 mm 6 m/s 763 mmHg 69%
    02:00 -4°C° 0 mm 6 m/s 763 mmHg 71%
    03:00 -4°C° 0 mm 6 m/s 763 mmHg 73%
    04:00 -4°C° 0 mm 6 m/s 763 mmHg 74%
    05:00 -4°C° 0 mm 6 m/s 763 mmHg 74%
    06:00 -4°C° 0 mm 6 m/s 763 mmHg 75%
    07:00 -4°C° 0 mm 7 m/s 763 mmHg 70%
    08:00 -3°C° 0 mm 7 m/s 763 mmHg 65%
    09:00 -4°C° 0 mm 8 m/s 763 mmHg 60%
    10:00 -2°C° 0 mm 8 m/s 763 mmHg 54%
    11:00 -1°C° 0 mm 8 m/s 763 mmHg 48%
    12:00 0°C° 0 mm 8 m/s 763 mmHg 42%
    13:00 0°C° 0 mm 8 m/s 763 mmHg 41%
    14:00 +1°C° 0 mm 8 m/s 763 mmHg 40%
    15:00 +1°C° 0 mm 8 m/s 762 mmHg 40%
    16:00 0°C° 0 mm 7 m/s 763 mmHg 42%
    17:00 -1°C° 0 mm 7 m/s 763 mmHg 45%
    18:00 -2°C° 0 mm 6 m/s 763 mmHg 48%
    19:00 -3°C° 0 mm 6 m/s 764 mmHg 49%
    20:00 -3°C° 0 mm 6 m/s 764 mmHg 51%
    21:00 -3°C° 0 mm 6 m/s 764 mmHg 53%
    22:00 -4°C° 0 mm 6 m/s 765 mmHg 53%
    23:00 -4°C° 0 mm 6 m/s 765 mmHg 54%

    24 Février, Samedi

    Heure Température Précipitation Vent Pression Humidité
    00:00 -4°C° 0 mm 6 m/s 765 mmHg 55%
    01:00 -5°C° 0 mm 6 m/s 765 mmHg 53%
    02:00 -5°C° 0 mm 6 m/s 765 mmHg 51%
    03:00 -5°C° 0 mm 6 m/s 765 mmHg 50%
    04:00 -5°C° 0 mm 6 m/s 765 mmHg 47%
    05:00 -6°C° 0 mm 7 m/s 766 mmHg 45%
    06:00 -6°C° 0 mm 7 m/s 766 mmHg 43%
    07:00 -4°C° 0 mm 7 m/s 766 mmHg 38%
    08:00 -5°C° 0 mm 8 m/s 766 mmHg 34%
    09:00 -4°C° 0 mm 8 m/s 767 mmHg 30%
    10:00 -2°C° 0 mm 8 m/s 767 mmHg 29%
    11:00 -1°C° 0 mm 8 m/s 767 mmHg 28%
    12:00 0°C° 0 mm 8 m/s 767 mmHg 27%
    13:00 +1°C° 0 mm 8 m/s 767 mmHg 29%
    14:00 +1°C° 0 mm 8 m/s 766 mmHg 30%
    15:00 +1°C° 0 mm 8 m/s 766 mmHg 32%
    16:00 0°C° 0 mm 8 m/s 767 mmHg 34%
    17:00 -1°C° 0 mm 7 m/s 767 mmHg 37%
    18:00 -2°C° 0 mm 7 m/s 767 mmHg 40%
    19:00 -3°C° 0 mm 7 m/s 768 mmHg 41%
    20:00 -3°C° 0 mm 7 m/s 768 mmHg 43%
    21:00 -4°C° 0 mm 7 m/s 768 mmHg 44%
    22:00 -4°C° 0 mm 7 m/s 768 mmHg 46%
    23:00 -4°C° 0 mm 7 m/s 769 mmHg 49%
    Voir plus